Radiation Dose at Monitoring Post of Fukushima Daini Nuclear Power Station
Date,Time,MP-1(microSv/h),MP-2(microSv/h),MP-3(microSv/h),MP-4(microSv/h),MP-5(microSv/h),MP-6(microSv/h),MP-7(microSv/h),Wind Direction,Wind Velocity(m/s),Rain
2017/03/27,00:00,0.380,0.229,0.381,0.352,0.327,0.190,0.160,north-northwest,7.3,Yes
2017/03/27,00:10,0.380,0.229,0.382,0.353,0.328,0.189,0.160,north-northwest,7.2,Yes
2017/03/27,00:20,0.378,0.228,0.383,0.353,0.326,0.190,0.159,north-northwest,8.5,No
2017/03/27,00:30,0.377,0.229,0.382,0.353,0.328,0.188,0.159,north,9.1,No
2017/03/27,00:40,0.379,0.227,0.382,0.352,0.326,0.187,0.160,north,8.6,Yes
2017/03/27,00:50,0.379,0.227,0.382,0.353,0.325,0.189,0.158,north,8.0,Yes
2017/03/27,01:00,0.377,0.228,0.381,0.354,0.327,0.189,0.159,north,7.9,Yes
2017/03/27,01:10,0.378,0.228,0.383,0.355,0.326,0.189,0.158,north,8.7,Yes
2017/03/27,01:20,0.379,0.228,0.383,0.352,0.326,0.189,0.159,north,7.8,Yes
2017/03/27,01:30,0.379,0.229,0.383,0.352,0.327,0.188,0.159,north,8.5,Yes
2017/03/27,01:40,0.378,0.228,0.381,0.353,0.328,0.189,0.159,north,8.4,Yes
2017/03/27,01:50,0.378,0.229,0.381,0.354,0.327,0.189,0.159,north,8.8,Yes
2017/03/27,02:00,0.377,0.228,0.383,0.351,0.326,0.190,0.159,north,9.5,Yes
2017/03/27,02:10,0.379,0.228,0.382,0.352,0.327,0.188,0.159,north,8.6,Yes
2017/03/27,02:20,0.378,0.227,0.383,0.355,0.327,0.189,0.159,north,8.6,Yes
2017/03/27,02:30,0.377,0.227,0.383,0.352,0.325,0.189,0.158,north,7.1,Yes
2017/03/27,02:40,0.377,0.228,0.382,0.352,0.327,0.188,0.159,north,6.7,Yes
2017/03/27,02:50,0.378,0.228,0.383,0.353,0.326,0.188,0.158,north,7.5,Yes
2017/03/27,03:00,0.376,0.228,0.382,0.352,0.326,0.188,0.158,north,6.2,Yes
2017/03/27,03:10,0.377,0.226,0.381,0.353,0.326,0.188,0.158,north-northeast,6.4,Yes
2017/03/27,03:20,0.376,0.229,0.382,0.351,0.326,0.188,0.158,north-northeast,10.7,Yes
2017/03/27,03:30,0.379,0.228,0.382,0.351,0.327,0.188,0.157,north-northeast,10.7,Yes
2017/03/27,03:40,0.375,0.227,0.382,0.351,0.326,0.189,0.158,north-northeast,9.9,Yes
2017/03/27,03:50,0.377,0.226,0.381,0.352,0.326,0.188,0.158,north-northeast,9.3,Yes
2017/03/27,04:00,0.376,0.229,0.381,0.350,0.326,0.189,0.158,north,8.6,Yes
2017/03/27,04:10,0.377,0.227,0.383,0.351,0.325,0.188,0.157,north,9.5,Yes
2017/03/27,04:20,0.378,0.227,0.381,0.349,0.327,0.189,0.159,north,8.7,Yes
2017/03/27,04:30,0.375,0.227,0.381,0.350,0.324,0.188,0.159,north,8.1,Yes
2017/03/27,04:40,0.376,0.227,0.379,0.350,0.324,0.189,0.158,north,8.6,Yes
2017/03/27,04:50,0.375,0.227,0.379,0.350,0.326,0.188,0.159,north,8.3,Yes
2017/03/27,05:00,0.377,0.227,0.381,0.349,0.326,0.189,0.158,north,8.8,Yes
2017/03/27,05:10,0.376,0.228,0.380,0.350,0.326,0.188,0.159,north,9.0,Yes
2017/03/27,05:20,0.375,0.227,0.379,0.349,0.325,0.188,0.158,north,10.4,Yes
2017/03/27,05:30,0.376,0.227,0.380,0.350,0.326,0.188,0.157,north,9.7,Yes
2017/03/27,05:40,0.376,0.227,0.381,0.350,0.326,0.188,0.159,north,9.8,Yes
2017/03/27,05:50,0.377,0.227,0.379,0.349,0.325,0.188,0.158,north,10.7,Yes
2017/03/27,06:00,0.374,0.227,0.380,0.350,0.324,0.188,0.158,north,9.9,Yes
2017/03/27,06:10,0.375,0.229,0.378,0.349,0.324,0.188,0.159,north,9.4,Yes
2017/03/27,06:20,0.373,0.227,0.377,0.349,0.326,0.189,0.158,north,8.3,Yes
2017/03/27,06:30,0.374,0.227,0.377,0.347,0.325,0.188,0.158,north,10.5,Yes
2017/03/27,06:40,0.374,0.227,0.378,0.346,0.325,0.188,0.158,north,10.5,Yes
2017/03/27,06:50,0.374,0.228,0.377,0.348,0.325,0.187,0.160,north,8.4,Yes
2017/03/27,07:00,0.372,0.228,0.376,0.347,0.324,0.189,0.159,north,8.2,Yes
2017/03/27,07:10,0.374,0.228,0.377,0.346,0.325,0.189,0.159,north,9.8,Yes
2017/03/27,07:20,0.373,0.229,0.377,0.346,0.325,0.189,0.159,north-northwest,9.0,Yes
2017/03/27,07:30,0.372,0.227,0.378,0.345,0.325,0.190,0.159,north-northwest,8.4,Yes
2017/03/27,07:40,0.371,0.228,0.376,0.345,0.325,0.188,0.159,north,11.7,Yes
2017/03/27,07:50,0.370,0.228,0.375,0.346,0.324,0.189,0.159,north-northwest,12.0,Yes
2017/03/27,08:00,0.371,0.228,0.375,0.342,0.322,0.187,0.159,north-northwest,10.7,Yes
2017/03/27,08:10,0.369,0.228,0.374,0.343,0.321,0.187,0.159,north-northwest,10.1,Yes
2017/03/27,08:20,0.369,0.227,0.373,0.340,0.317,0.186,0.159,north,11.5,Yes
2017/03/27,08:30,0.367,0.225,0.374,0.338,0.316,0.185,0.157,north,11.9,Yes
2017/03/27,08:40,0.363,0.224,0.371,0.337,0.314,0.183,0.156,north,12.3,Yes
2017/03/27,08:50,0.363,0.222,0.371,0.336,0.311,0.182,0.156,north-northwest,11.4,Yes
2017/03/27,09:00,0.360,0.221,0.369,0.334,0.310,0.181,0.155,north,12.8,Yes
2017/03/27,09:10,0.359,0.222,0.368,0.333,0.308,0.179,0.154,north,12.3,Yes
2017/03/27,09:20,0.359,0.220,0.368,0.331,0.306,0.178,0.152,north,12.1,Yes
2017/03/27,09:30,0.357,0.219,0.365,0.329,0.305,0.178,0.151,north-northwest,12.5,Yes
2017/03/27,09:40,0.357,0.218,0.366,0.329,0.304,0.178,0.151,north-northwest,12.3,Yes
2017/03/27,09:50,0.357,0.219,0.365,0.328,0.303,0.177,0.150,north-northwest,12.0,Yes
2017/03/27,10:00,0.357,0.219,0.364,0.329,0.301,0.176,0.151,north,11.5,Yes
2017/03/27,10:10,0.356,0.216,0.364,0.326,0.300,0.176,0.150,north-northwest,12.4,Yes
2017/03/27,10:20,0.357,0.218,0.364,0.326,0.299,0.176,0.149,north-northwest,12.3,Yes
2017/03/27,10:30,0.356,0.215,0.363,0.324,0.297,0.173,0.149,north,12.8,Yes
2017/03/27,10:40,0.354,0.219,0.364,0.322,0.296,0.173,0.148,north,13.0,Yes
2017/03/27,10:50,0.354,0.217,0.363,0.320,0.294,0.173,0.147,north,12.9,Yes
2017/03/27,11:00,0.355,0.217,0.362,0.320,0.293,0.173,0.147,north,12.3,Yes
2017/03/27,11:10,0.354,0.216,0.364,0.320,0.293,0.172,0.146,north,11.3,Yes
2017/03/27,11:20,0.354,0.216,0.362,0.318,0.292,0.172,0.146,north,12.3,Yes
2017/03/27,11:30,0.353,0.215,0.362,0.317,0.291,0.171,0.145,north,12.3,Yes
2017/03/27,11:40,0.354,0.214,0.361,0.315,0.290,0.172,0.145,north-northwest,12.3,Yes
2017/03/27,11:50,0.353,0.214,0.363,0.315,0.289,0.171,0.144,north,13.5,Yes
2017/03/27,12:00,0.352,0.215,0.362,0.314,0.288,0.170,0.144,north,13.4,Yes
2017/03/27,12:10,0.353,0.215,0.363,0.315,0.287,0.171,0.144,north-northwest,11.9,Yes
2017/03/27,12:20,0.353,0.217,0.362,0.314,0.288,0.170,0.143,north,13.3,Yes
2017/03/27,12:30,0.354,0.215,0.364,0.313,0.286,0.170,0.143,north-northwest,12.3,Yes
2017/03/27,12:40,0.354,0.216,0.363,0.312,0.285,0.171,0.144,north,13.0,Yes
2017/03/27,12:50,0.355,0.218,0.364,0.311,0.285,0.169,0.142,north-northwest,12.3,Yes
2017/03/27,13:00,0.356,0.215,0.365,0.312,0.286,0.170,0.144,north-northwest,11.8,Yes
2017/03/27,13:10,0.356,0.216,0.364,0.313,0.284,0.170,0.144,north,13.3,Yes
2017/03/27,13:20,0.356,0.218,0.365,0.311,0.285,0.170,0.144,north,12.2,Yes
2017/03/27,13:30,0.358,0.218,0.365,0.312,0.287,0.171,0.145,north-northwest,12.8,Yes
2017/03/27,13:40,0.359,0.218,0.365,0.312,0.285,0.170,0.144,north-northwest,12.6,Yes
2017/03/27,13:50,0.357,0.218,0.366,0.314,0.284,0.171,0.145,north-northwest,10.8,Yes
2017/03/27,14:00,0.357,0.217,0.367,0.314,0.285,0.172,0.146,north-northwest,12.2,Yes
2017/03/27,14:10,0.360,0.218,0.366,0.316,0.286,0.172,0.146,north-northwest,11.6,Yes
2017/03/27,14:20,0.362,0.221,0.368,0.316,0.287,0.173,0.147,north-northwest,12.1,Yes
2017/03/27,14:30,0.362,0.219,0.369,0.318,0.288,0.173,0.146,north-northwest,12.6,Yes
2017/03/27,14:40,0.362,0.219,0.367,0.319,0.289,0.173,0.148,north-northwest,11.5,Yes
2017/03/27,14:50,0.362,0.220,0.371,0.320,0.291,0.173,0.146,north-northwest,11.0,Yes
2017/03/27,15:00,0.364,0.220,0.369,0.320,0.291,0.173,0.148,north-northwest,11.2,No
2017/03/27,15:10,0.363,0.219,0.370,0.319,0.293,0.174,0.148,north-northwest,11.6,No
2017/03/27,15:20,0.364,0.220,0.370,0.320,0.293,0.174,0.148,north-northwest,11.5,No
2017/03/27,15:30,0.363,0.220,0.370,0.321,0.295,0.174,0.148,north-northwest,10.9,No
2017/03/27,15:40,0.365,0.219,0.370,0.324,0.294,0.174,0.147,north,12.3,Yes
2017/03/27,15:50,0.365,0.220,0.371,0.323,0.296,0.174,0.148,north,11.7,Yes
2017/03/27,16:00,0.366,0.220,0.371,0.323,0.295,0.174,0.149,north,11.7,No
2017/03/27,16:10,0.365,0.221,0.374,0.326,0.295,0.174,0.149,north,10.9,No
2017/03/27,16:20,0.365,0.220,0.372,0.326,0.297,0.175,0.148,north,11.0,Yes
2017/03/27,16:30,0.366,0.222,0.374,0.325,0.298,0.175,0.149,north-northwest,10.1,Yes
2017/03/27,16:40,0.367,0.223,0.373,0.324,0.298,0.174,0.149,north-northwest,9.8,No
2017/03/27,16:50,0.368,0.221,0.375,0.326,0.299,0.175,0.150,north-northwest,11.3,Yes
2017/03/27,17:00,0.366,0.222,0.374,0.327,0.301,0.177,0.149,north,11.3,Yes
2017/03/27,17:10,0.367,0.222,0.372,0.327,0.300,0.176,0.150,north,11.9,No
2017/03/27,17:20,0.367,0.222,0.375,0.328,0.300,0.176,0.150,north,11.6,No
2017/03/27,17:30,0.369,0.221,0.376,0.330,0.302,0.177,0.150,north-northwest,10.5,No
2017/03/27,17:40,0.368,0.221,0.374,0.329,0.301,0.176,0.150,north-northwest,11.9,No
2017/03/27,17:50,0.367,0.221,0.375,0.328,0.304,0.177,0.150,north-northwest,10.8,No
2017/03/27,18:00,0.366,0.221,0.374,0.329,0.303,0.176,0.150,north-northwest,10.9,No
2017/03/27,18:10,0.369,0.223,0.375,0.330,0.303,0.177,0.150,north-northwest,10.9,No
2017/03/27,18:20,0.368,0.223,0.376,0.332,0.304,0.178,0.151,north-northwest,10.3,No
2017/03/27,18:30,0.369,0.223,0.376,0.331,0.305,0.176,0.150,north-northwest,10.7,No
2017/03/27,18:40,0.367,0.222,0.373,0.330,0.305,0.177,0.150,north-northwest,10.1,No
2017/03/27,18:50,0.370,0.223,0.375,0.333,0.304,0.176,0.150,north,11.2,No
2017/03/27,19:00,0.370,0.223,0.375,0.332,0.305,0.177,0.150,north-northwest,11.0,No
2017/03/27,19:10,0.369,0.222,0.376,0.332,0.306,0.178,0.151,north-northwest,10.7,No
2017/03/27,19:20,0.370,0.222,0.376,0.332,0.306,0.178,0.151,north-northwest,10.6,No
2017/03/27,19:30,0.370,0.222,0.376,0.333,0.307,0.178,0.151,north-northwest,10.1,No
2017/03/27,19:40,0.371,0.222,0.376,0.333,0.307,0.178,0.151,north-northwest,10.5,No
2017/03/27,19:50,0.370,0.222,0.377,0.334,0.308,0.177,0.151,north-northwest,10.0,No
2017/03/27,20:00,0.369,0.222,0.378,0.335,0.309,0.178,0.152,north-northwest,10.8,No
2017/03/27,20:10,0.372,0.223,0.377,0.333,0.309,0.178,0.152,north-northwest,9.2,No
2017/03/27,20:20,0.370,0.222,0.376,0.334,0.308,0.179,0.151,north,9.6,No
2017/03/27,20:30,0.371,0.223,0.377,0.335,0.309,0.177,0.152,north-northwest,9.0,No
2017/03/27,20:40,0.370,0.223,0.378,0.334,0.310,0.177,0.152,north-northwest,10.2,No
2017/03/27,20:50,0.371,0.222,0.377,0.335,0.309,0.179,0.152,north-northwest,9.0,No
2017/03/27,21:00,0.371,0.223,0.378,0.335,0.310,0.180,0.152,north-northwest,9.0,No
2017/03/27,21:10,0.371,0.222,0.376,0.337,0.310,0.179,0.152,north-northwest,8.7,No
2017/03/27,21:20,0.370,0.224,0.378,0.336,0.311,0.180,0.152,north-northwest,8.4,No
2017/03/27,21:30,0.371,0.223,0.378,0.337,0.310,0.178,0.152,north-northwest,8.3,No
2017/03/27,21:40,0.372,0.223,0.377,0.338,0.311,0.179,0.152,north-northwest,7.5,No
2017/03/27,21:50,0.371,0.223,0.377,0.337,0.311,0.178,0.152,north-northwest,7.5,No
2017/03/27,22:00,0.370,0.223,0.379,0.336,0.312,0.180,0.153,north-northwest,7.9,No
2017/03/27,22:10,0.372,0.223,0.377,0.337,0.311,0.179,0.153,north-northwest,8.0,No
2017/03/27,22:20,0.374,0.223,0.378,0.337,0.312,0.179,0.152,north-northwest,7.0,No
2017/03/27,22:30,0.371,0.223,0.378,0.338,0.311,0.180,0.152,north,7.4,No
2017/03/27,22:40,0.372,0.224,0.380,0.338,0.313,0.181,0.152,north,7.3,No
2017/03/27,22:50,0.372,0.223,0.380,0.338,0.313,0.180,0.153,north,7.1,No
2017/03/27,23:00,0.373,0.224,0.377,0.339,0.313,0.180,0.153,north,6.8,No
2017/03/27,23:10,0.372,0.223,0.378,0.338,0.314,0.180,0.152,north,6.8,No
2017/03/27,23:20,0.373,0.223,0.379,0.338,0.313,0.180,0.152,north-northwest,6.3,No
2017/03/27,23:30,0.372,0.224,0.379,0.338,0.313,0.180,0.153,north-northwest,5.8,No
2017/03/27,23:40,0.372,0.224,0.378,0.338,0.312,0.181,0.153,north-northwest,6.0,Yes
2017/03/27,23:50,0.372,0.222,0.378,0.340,0.315,0.180,0.154,north-northwest,5.6,Yes
